Flag for Argentina Weather past 2 weeks in Formosa, Formosa, Argentina

Now
73 °F

Thunderstorms. Passing clouds.


Feels Like: 72 °F
Forecast: 69 / 83 °F
Wind: 16 mph from Southeast

Location: Formosa Aerodrome


UV Index: 3 (Moderate)

Visibility: N/A


Pressure: 29.89 "Hg

Humidity: 89%

Dew point: 70 °F

Location of FormosaLocation

Historic Weather in Formosa

°F

Formosa temperature yesterday

Maximum temperature yesterday: 84 °F (at 3:00 PM)
Minimum temperature yesterday: 55 °F (at 3:00 AM)
Average temperature yesterday: 70 °F

Past Weeks' High & Low Weather Summary

 TemperatureHumidityPressure
High95 °F (Apr 7, 3:00 PM)100% (Apr 3, 12:00 AM)30.30 "Hg (Apr 3, 12:00 AM)
Low50 °F (Apr 14, 6:00 AM)37% (Apr 13, 11:00 AM)29.62 "Hg (Apr 8, 3:00 AM)
Average75 °F80%29.90 "Hg
* Reported Apr 2 8:00 PM — Apr 17 8:00 PM, Formosa, Weather by CustomWeather, © 2014

Note: Actual official high and low records may vary slightly from our data, if they occured in-between our weather recording intervals... More about our weather records

Advertising

Historic Weather Conditions — Data for Previous 24 hours

 ConditionsComfort  
Time TempWeatherWind HumidityBarometerVisibility
8:00 PM
Apr 17
73 °FThunderstorms. Passing clouds.16 mph89%29.89 "HgN/A
7:00 PM72 °FPassing clouds.9 mph94%29.86 "HgN/A
6:00 PM73 °FPassing clouds.9 mph94%29.86 "HgN/A
5:00 PM75 °FPartly sunny.6 mph83%29.83 "HgN/A
4:00 PM77 °FPartly sunny.16 mph83%29.83 "HgN/A
3:00 PM84 °FPartly sunny.12 mph74%29.83 "HgN/A
2:00 PM86 °FPartly sunny.5 mph70%29.83 "HgN/A
1:00 PM77 °FThunderstorms. Passing clouds.6 mph89%29.86 "HgN/A
12:00 PM77 °FThunderstorms. Scattered clouds.6 mph89%29.89 "HgN/A
11:00 AM79 °FScattered clouds.12 mph79%29.86 "HgN/A
10:00 AM77 °FScattered clouds.12 mph83%29.89 "HgN/A
9:00 AM75 °FScattered clouds.10 mph83%29.89 "HgN/A
8:00 AM72 °FPartly sunny.10 mph94%29.89 "HgN/A
7:00 AM72 °FPartly sunny.7 mph94%29.86 "HgN/A
6:00 AM72 °FPassing clouds.7 mph94%29.83 "HgN/A
5:00 AM72 °FOvercast.8 mph94%29.83 "HgN/A
4:00 AM73 °FPassing clouds.8 mph89%29.83 "HgN/A
3:00 AM73 °FOvercast.14 mph89%29.83 "HgN/A
2:00 AM73 °FOvercast.14 mph89%29.83 "HgN/A
1:00 AM73 °FPassing clouds.13 mph89%29.86 "HgN/A
12:00 AM73 °FPassing clouds.10 mph89%29.86 "HgN/A
11:00 PM
Apr 16
73 °FClear.6 mph89%29.86 "HgN/A
10:00 PM72 °FClear.6 mph94%29.86 "Hg5 mi
Weather by CustomWeather, © 2014

See weather overview